sat.trackr.live / text

‹ back to catalog

KINEIS-5E

NORAD 62083 · 2024-219C

PAYLOAD ACTIVE UNKNOWN

§ Identity

Operator
Country
FR
Launch date
2024-11-25
Launch site
RLLB
Launch vehicle
Mass (kg)
RCS (m²)

External: N2YO · Heavens-Above · Gunter

§ Orbital elements

Epoch: 2026-09-22T21:38:14.815968Z

Period
97.81 min
Inclination
97.9115°
Eccentricity
0.0005414
Mean motion
14.72294887 rev/d
Perigee alt
649.9 km
Apogee alt
657.6 km
Semi-major
7,031.9 km
B*
6.6301e-5
RAAN
62.1646°
Arg perigee
323.1410°
Mean anomaly
36.9425°
Rev number
9,814

§ Raw data

KINEIS-5E1 62083U 24219C   26265.90156037  .00000370  00000+0  66301-4 0  99982 62083  97.9115  62.1646 0005414 323.1410  36.9425 14.72294887 98149

JSON: /api/v1/satellites/62083 · /tle

For live sub-satellite position, see the globe view (requires WebGL).

§ Visibility from observer

Set your observer location to see the next 7 days of passes ≥ 10°. The values pass through the URL so the page stays shareable.

No JS? Fill the form by hand. The geolocation button needs JavaScript.

§ Radio — SatNOGS DB

ModeDescriptionDownlinkUplink
BPSK PMT-A3 Mode U 400.639 MHz
BPSK S-band telemetry 2.265 GHz

2 transmitters · refreshed weekly from db.satnogs.org